Location: Winnipeg
(49.8830°N, 97.1670°W)
Time: 00:08:14
(UTC-06:00)

ISS - Pass Details

Date: 13 November 2024
Orbit: 411 x 421 km, 51.6° (Epoch: 04 December)

Event Time Altitude Azimuth Distance (km) Brightness Sun altitude
Rises 19:14:05 0° 213° (SSW) 2,371 0.5 -23.6°
Reaches altitude 10° 19:16:25 10° 199° (SSW) 1,509 -0.7 -24.0°
Enters shadow 19:16:40 11° 196° (SSW) 1,427 -0.9 -24.1°
